This is the latest recevied weather packets stored in our database for station/object W4MSI. If no packets are shown the sender has not sent any weather packets the latest 10 day(s).
| Time | Temp. | Humidity | Pressure | Rain* | Wind** | Luminosity | Snow |
|---|---|---|---|---|---|---|---|
| 1777910822 | 22.78° C | 53% | 1012 hPa | 0 mm | - | 766 W/m² | - |
| 1777910519 | 22.22° C | 54% | 1012.1 hPa | 0 mm | - | 753 W/m² | - |
| 1777910215 | 22.22° C | 55% | 1012 hPa | 0 mm | - | 746 W/m² | - |
| 1777909913 | 21.67° C | 57% | 1011.9 hPa | 0 mm | - | 675 W/m² | - |
| 1777909609 | 21.67° C | 59% | 1012.1 hPa | 0 mm | - | 722 W/m² | - |
| 1777909307 | 21.67° C | 54% | 1012.1 hPa | 0 mm | - | 718 W/m² | - |
| 1777909004 | 21.67° C | 54% | 1012.2 hPa | 0 mm | - | 694 W/m² | - |
| 1777908702 | 21.67° C | 56% | 1012.1 hPa | 0 mm | - | 685 W/m² | - |
| 1777908399 | 21.11° C | 57% | 1012 hPa | 0 mm | - | 663 W/m² | - |
| 1777908096 | 21.11° C | 58% | 1012.1 hPa | 0 mm | - | 660 W/m² | - |
| 1777907792 | 21.11° C | 57% | 1011.9 hPa | 0 mm | - | 646 W/m² | - |
| 1777907487 | 21.11° C | 59% | 1012.1 hPa | 0 mm | - | 632 W/m² | - |
| 1777907184 | 20.56° C | 58% | 1011.8 hPa | 0 mm | - | 618 W/m² | - |
| 1777906881 | 20.56° C | 59% | 1012.1 hPa | 0 mm | - | 599 W/m² | - |
| 1777906578 | 20.56° C | 58% | 1012.3 hPa | 0 mm | - | 588 W/m² | - |
| 1777906273 | 20.56° C | 59% | 1012.2 hPa | 0 mm | - | 574 W/m² | - |
| 1777905971 | 20° C | 59% | 1012.2 hPa | 0 mm | - | 547 W/m² | - |
| 1777905667 | 20° C | 59% | 1012.4 hPa | 0 mm | - | 536 W/m² | - |
| 1777905364 | 20° C | 61% | 1012.6 hPa | 0 mm | - | 515 W/m² | - |
| 1777905062 | 19.44° C | 60% | 1012.4 hPa | 0 mm | - | 446 W/m² | - |
| 1777904759 | 18.89° C | 62% | 1012.7 hPa | 0 mm | - | 482 W/m² | - |
| 1777904456 | 18.89° C | 63% | 1012.7 hPa | 0 mm | - | 447 W/m² | - |
| 1777904152 | 18.89° C | 63% | 1012.6 hPa | 0 mm | - | 430 W/m² | - |
| 1777903849 | 18.33° C | 62% | 1012.5 hPa | 0 mm | - | 424 W/m² | - |
| 1777903546 | 18.33° C | 62% | 1012.5 hPa | 0 mm | - | 397 W/m² | - |
* Rain latest hour (hover to see other rain measurements)
** Current wind speed in m/s (hover to see current wind gust speed)